Tracking 30009 objects as of 7-Dec-2024
HD Live streaming from Space Station
objects crossing your sky now

COSMOS 1275 DEB

Track COSMOS 1275 DEB now!
10-day predictions


NORAD ID: 14627
Int'l Code: 1981-053JT
Perigee: 853.7 km
Apogee: 913.5 km
Inclination: 82.8 °
Period: 102.5 minutes
Semi major axis: 7254 km
RCS: 0.0099 m2 (small)
Launch date: June 4, 1981
Source: Commonwealth of Independent States (former USSR) (CIS)
Launch site: PLESETSK MISSILE AND SPACE COMPLEX (PKMTR)

Note: This is SATELLITE DEBRIS
Your satellite tracking list
Your tracking list is empty




NASA's NSSDC Master Catalog

Two Line Element Set (TLE):
1 14627U 81053JQ  24342.18883218  .00004536  00000-0  27867-2 0  9991
2 14627  82.7810 130.7527 0041203 198.2358 336.1735 14.05023282 83511
Source of the keplerian elements: AFSPC